IAM26 LICZ-VIDP

Flight info

Callsign IAM26
Flight time N/A
Altitude 18000
Route PIMOR Q72 DODEL/N0475F350 DCT ABAKO DCT VENIM DCT ABNAT DCT EVLIB DCT ARLOS UN4 SALUN N705 MMA/N0477F370 L613 KIVIL N710 TAKRI M720 FYM M872 WEJ L604 GAS L308 ALMUL/N0467F390 L308 DAROR P559 NALPO DCT TONVO A777 NADSO B505 PG G214 RK G452 LKA LKA6A
Aircraft A333/H-SDE3GHIJ2J3J5M1RVWXY/LB2D1

Departure

Time 2026-04-17 05:51
Airport Sigonella Navy Air Base (LICZ)

Arrival

Time N/A
Airport Indira Gandhi International Airport (VIDP)
Time Latitude Longitude Altitude Speed Heading
2026-04-17 05:34 37.40780 14.91555 90 ft 0 kts 279°
2026-04-17 05:44 37.40780 14.91545 91 ft 6 kts 275°
2026-04-17 05:45 37.40721 14.91494 91 ft 17 kts 199°
2026-04-17 05:45 37.40596 14.91437 89 ft 15 kts 240°
2026-04-17 05:45 37.40596 14.91288 89 ft 19 kts 275°
2026-04-17 05:45 37.40610 14.91100 90 ft 23 kts 279°
2026-04-17 05:46 37.40596 14.90937 89 ft 16 kts 209°
2026-04-17 05:46 37.40508 14.90986 88 ft 17 kts 101°
2026-04-17 05:46 37.40483 14.91167 87 ft 23 kts 99°
2026-04-17 05:46 37.40458 14.91395 86 ft 28 kts 97°
2026-04-17 05:47 37.40437 14.91620 86 ft 20 kts 96°
2026-04-17 05:47 37.40413 14.91814 86 ft 26 kts 101°
2026-04-17 05:47 37.40374 14.92106 82 ft 41 kts 98°
2026-04-17 05:47 37.40332 14.92469 81 ft 41 kts 97°
2026-04-17 05:48 37.40290 14.92829 77 ft 43 kts 98°
2026-04-17 05:48 37.40243 14.93217 74 ft 44 kts 99°
2026-04-17 05:48 37.40215 14.93478 72 ft 1 kts 98°
2026-04-17 05:48 37.40207 14.93547 72 ft 13 kts 101°
2026-04-17 05:49 37.40140 14.93607 71 ft 12 kts 186°
2026-04-17 05:49 37.40055 14.93594 71 ft 11 kts 191°
2026-04-17 05:49 37.40012 14.93525 71 ft 10 kts 270°
2026-04-17 05:49 37.40014 14.93498 71 ft 0 kts 278°
2026-04-17 05:50 37.40021 14.93441 72 ft 27 kts 278°
2026-04-17 05:51 37.40078 14.92950 78 ft 84 kts 277°
2026-04-17 05:51 37.40187 14.92010 81 ft 134 kts 279°
2026-04-17 05:51 37.40356 14.90593 194 ft 184 kts 277°
2026-04-17 05:51 37.40455 14.89069 1235 ft 171 kts 265°
2026-04-17 05:52 37.39990 14.87823 2259 ft 163 kts 222°
2026-04-17 05:52 37.38989 14.87322 3069 ft 161 kts 179°
2026-04-17 05:52 37.37917 14.87802 3586 ft 174 kts 135°
2026-04-17 05:52 37.37320 14.89075 4308 ft 174 kts 104°
2026-04-17 05:53 37.37088 14.90528 5124 ft 170 kts 83°
2026-04-17 05:53 37.37515 14.91909 5768 ft 176 kts 59°
2026-04-17 05:53 37.38115 14.93238 6529 ft 179 kts 60°
2026-04-17 05:53 37.38664 14.94614 7279 ft 180 kts 65°
2026-04-17 05:54 37.39166 14.96025 8006 ft 181 kts 65°
2026-04-17 05:54 37.39750 14.97469 8614 ft 186 kts 53°
2026-04-17 05:54 37.40585 14.98642 9274 ft 187 kts 50°
2026-04-17 05:54 37.41466 14.99958 9661 ft 204 kts 51°
2026-04-17 05:55 37.42408 15.01376 10074 ft 219 kts 51°
2026-04-17 05:55 37.43448 15.02952 10349 ft 251 kts 51°
2026-04-17 05:55 37.44621 15.04732 10773 ft 269 kts 51°
2026-04-17 05:55 37.45838 15.06580 11183 ft 283 kts 51°
2026-04-17 05:56 37.47118 15.08528 11588 ft 297 kts 50°
2026-04-17 05:56 37.48459 15.10567 11990 ft 310 kts 50°
2026-04-17 05:56 37.49880 15.12730 12391 ft 324 kts 50°
2026-04-17 05:56 37.51340 15.14955 12787 ft 337 kts 50°
2026-04-17 05:57 37.52852 15.17260 13175 ft 349 kts 51°
2026-04-17 05:57 37.54391 15.19720 13561 ft 360 kts 57°
2026-04-17 05:57 37.55351 15.22648 13923 ft 372 kts 76°
2026-04-17 05:57 37.55524 15.25926 14311 ft 382 kts 90°
2026-04-17 05:58 37.55587 15.29306 14615 ft 391 kts 86°
2026-04-17 05:58 37.55697 15.32748 14992 ft 399 kts 86°
2026-04-17 05:58 37.55815 15.36237 15254 ft 395 kts 86°
2026-04-17 05:59 37.56049 15.43106 15997 ft 394 kts 86°
2026-04-17 05:59 37.56164 15.46543 16319 ft 395 kts 86°
2026-04-17 05:59 37.56278 15.49964 16680 ft 398 kts 86°
2026-04-17 05:59 37.56393 15.53455 17054 ft 399 kts 86°
2026-04-17 06:00 37.56507 15.56966 17423 ft 401 kts 86°
2026-04-17 06:00 37.56621 15.60478 17787 ft 403 kts 86°
2026-04-17 06:00 37.56734 15.64007 18154 ft 406 kts 86°
2026-04-17 06:00 37.56847 15.67562 18529 ft 410 kts 87°
2026-04-17 06:01 37.56960 15.71149 18917 ft 412 kts 87°
2026-04-17 06:01 37.57072 15.74751 19297 ft 414 kts 87°
2026-04-17 06:01 37.57184 15.78353 19672 ft 416 kts 87°
2026-04-17 06:01 37.57294 15.82016 20061 ft 418 kts 87°
2026-04-17 06:02 37.57077 15.85685 20418 ft 423 kts 101°
2026-04-17 06:02 37.56002 15.89109 20787 ft 428 kts 118°
2026-04-17 06:02 37.54437 15.92306 21195 ft 431 kts 120°
2026-04-17 06:02 37.52879 15.95527 21585 ft 434 kts 120°
2026-04-17 06:03 37.51313 15.98777 21970 ft 437 kts 120°
2026-04-17 06:03 37.49738 16.02047 22355 ft 439 kts 119°
2026-04-17 06:03 37.48143 16.05364 22747 ft 442 kts 119°
2026-04-17 06:03 37.46558 16.08654 23136 ft 444 kts 119°
2026-04-17 06:04 37.44957 16.11972 23526 ft 447 kts 119°
2026-04-17 06:04 37.43345 16.15313 23928 ft 449 kts 119°
2026-04-17 06:04 37.41723 16.18671 24333 ft 451 kts 119°
2026-04-17 06:04 37.40089 16.22050 24739 ft 453 kts 119°
2026-04-17 06:05 37.38454 16.25425 25143 ft 455 kts 120°
2026-04-17 06:05 37.36813 16.28813 25543 ft 457 kts 120°
2026-04-17 06:05 37.35166 16.32206 25951 ft 458 kts 119°
2026-04-17 06:05 37.33492 16.35656 26366 ft 460 kts 120°
2026-04-17 06:06 37.31830 16.39074 26775 ft 461 kts 120°
2026-04-17 06:06 37.30160 16.42507 27182 ft 462 kts 119°
2026-04-17 06:06 37.28502 16.45911 27586 ft 463 kts 120°
2026-04-17 06:06 37.26814 16.49371 27995 ft 464 kts 119°
2026-04-17 06:07 37.25134 16.52813 28403 ft 464 kts 119°
2026-04-17 06:07 37.23444 16.56273 28812 ft 465 kts 119°
2026-04-17 06:07 37.21766 16.59703 29220 ft 465 kts 120°
2026-04-17 06:07 37.20065 16.63179 29635 ft 465 kts 120°
2026-04-17 06:08 37.18283 16.66515 30026 ft 466 kts 128°
2026-04-17 06:08 37.15976 16.69322 30439 ft 467 kts 137°
2026-04-17 06:08 37.13555 16.72034 30866 ft 466 kts 136°
2026-04-17 06:08 37.11140 16.74743 31282 ft 465 kts 136°
2026-04-17 06:09 37.08724 16.77452 31699 ft 464 kts 136°
2026-04-17 06:09 37.06348 16.80114 32111 ft 463 kts 136°
2026-04-17 06:09 37.03936 16.82813 32531 ft 461 kts 136°
2026-04-17 06:09 37.01572 16.85458 32946 ft 460 kts 136°
2026-04-17 06:10 36.99189 16.88120 33366 ft 457 kts 136°
2026-04-17 06:10 36.96810 16.90777 33790 ft 455 kts 136°
2026-04-17 06:10 36.94486 16.93370 34205 ft 453 kts 136°
2026-04-17 06:10 36.92140 16.95983 34620 ft 450 kts 136°
2026-04-17 06:11 36.89809 16.98578 35011 ft 448 kts 136°
2026-04-17 06:11 36.87470 17.01181 35265 ft 445 kts 136°
2026-04-17 06:11 36.85171 17.03738 35516 ft 442 kts 136°
2026-04-17 06:11 36.82874 17.06289 35743 ft 439 kts 136°
2026-04-17 06:12 36.80605 17.08807 35948 ft 437 kts 136°
2026-04-17 06:12 36.78339 17.11321 36151 ft 434 kts 136°
2026-04-17 06:12 36.76094 17.13808 36379 ft 431 kts 136°
2026-04-17 06:12 36.73830 17.16314 36674 ft 429 kts 136°
2026-04-17 06:13 36.71627 17.18750 36978 ft 426 kts 136°
2026-04-17 06:13 36.69420 17.21190 37284 ft 422 kts 136°
2026-04-17 06:13 36.67212 17.23629 37596 ft 419 kts 136°
2026-04-17 06:13 36.65051 17.26015 37899 ft 415 kts 136°
2026-04-17 06:14 36.62913 17.28372 38201 ft 411 kts 137°
2026-04-17 06:14 36.60788 17.30712 38507 ft 406 kts 137°
2026-04-17 06:14 36.58687 17.33027 38806 ft 401 kts 137°
2026-04-17 06:14 36.56596 17.35328 38948 ft 403 kts 137°
2026-04-17 06:15 36.54489 17.37643 38914 ft 408 kts 137°
2026-04-17 06:15 36.50309 17.42452 38921 ft 414 kts 125°
2026-04-17 06:15 36.48856 17.45547 38981 ft 413 kts 111°
2026-04-17 06:16 36.47682 17.48793 38948 ft 419 kts 113°
2026-04-17 06:16 36.45222 17.55405 38939 ft 428 kts 113°
2026-04-17 06:17 36.42689 17.62192 38934 ft 437 kts 113°
2026-04-17 06:17 36.40101 17.69108 38930 ft 446 kts 114°
2026-04-17 06:18 36.37472 17.76117 38922 ft 453 kts 114°
2026-04-17 06:18 36.34809 17.83203 38924 ft 460 kts 114°
2026-04-17 06:19 36.32093 17.90413 38919 ft 465 kts 114°
2026-04-17 06:19 36.29334 17.97721 38916 ft 470 kts 114°
2026-04-17 06:20 36.26551 18.05075 38913 ft 474 kts 114°
2026-04-17 06:20 36.23751 18.12455 38903 ft 477 kts 114°
2026-04-17 06:21 36.20914 18.19916 38898 ft 480 kts 114°
2026-04-17 06:21 36.18075 18.27369 38902 ft 482 kts 114°
2026-04-17 06:22 36.15223 18.34830 38913 ft 483 kts 114°
2026-04-17 06:22 36.12334 18.42373 38910 ft 484 kts 114°
2026-04-17 06:23 36.09432 18.49933 38914 ft 485 kts 114°
2026-04-17 06:23 36.06546 18.57437 38905 ft 487 kts 114°
2026-04-17 06:24 36.03635 18.64985 38908 ft 487 kts 114°
2026-04-17 06:24 36.00721 18.72521 38899 ft 488 kts 115°
2026-04-17 06:25 35.97800 18.80063 38904 ft 488 kts 115°
2026-04-17 06:25 35.94876 18.87589 38908 ft 489 kts 114°
2026-04-17 06:26 35.91940 18.95131 38900 ft 489 kts 114°
2026-04-17 06:26 35.88994 19.02684 38896 ft 489 kts 115°
2026-04-17 06:27 35.86071 19.10198 38870 ft 489 kts 111°
2026-04-17 06:27 35.83775 19.18080 38864 ft 488 kts 109°
2026-04-17 06:28 35.81460 19.25901 38873 ft 488 kts 109°
2026-04-17 06:28 35.79119 19.33751 38867 ft 488 kts 109°
2026-04-17 06:29 35.76791 19.41539 38870 ft 489 kts 109°
2026-04-17 06:29 35.74432 19.49412 38869 ft 489 kts 109°
2026-04-17 06:30 35.72081 19.57230 38863 ft 489 kts 109°
2026-04-17 06:30 35.69731 19.65029 38872 ft 489 kts 109°
2026-04-17 06:31 35.67365 19.72856 38875 ft 489 kts 109°
2026-04-17 06:31 35.65001 19.80657 38868 ft 489 kts 110°
2026-04-17 06:32 35.62626 19.88471 38863 ft 490 kts 110°
2026-04-17 06:32 35.60246 19.96280 38852 ft 490 kts 110°
2026-04-17 06:33 35.57857 20.04100 38858 ft 490 kts 110°
2026-04-17 06:33 35.55456 20.11934 38861 ft 490 kts 110°
2026-04-17 06:34 35.53060 20.19738 38863 ft 491 kts 110°
2026-04-17 06:34 35.50651 20.27556 38867 ft 491 kts 110°
2026-04-17 06:35 35.48241 20.35360 38856 ft 491 kts 110°
2026-04-17 06:35 35.45811 20.43204 38856 ft 492 kts 110°
2026-04-17 06:36 35.43377 20.51041 38856 ft 492 kts 110°
2026-04-17 06:36 35.40953 20.58826 38853 ft 492 kts 110°
2026-04-17 06:37 35.38505 20.66672 38843 ft 493 kts 110°
2026-04-17 06:37 35.36055 20.74497 38830 ft 493 kts 110°
2026-04-17 06:38 35.33612 20.82281 38835 ft 492 kts 110°
2026-04-17 06:38 35.31163 20.90063 38828 ft 493 kts 110°
2026-04-17 06:39 35.28693 20.97891 38833 ft 493 kts 111°
2026-04-17 06:39 35.26225 21.05691 38820 ft 493 kts 111°
2026-04-17 06:40 35.23756 21.13473 38820 ft 493 kts 110°
2026-04-17 06:40 35.21265 21.21307 38820 ft 494 kts 111°
2026-04-17 06:41 35.18786 21.29082 38816 ft 494 kts 111°
2026-04-17 06:41 35.16287 21.36897 38807 ft 494 kts 111°
2026-04-17 06:42 35.13798 21.44664 38817 ft 494 kts 111°
2026-04-17 06:42 35.11292 21.52460 38825 ft 494 kts 111°
2026-04-17 06:43 35.08791 21.60223 38808 ft 494 kts 111°
2026-04-17 06:43 35.06265 21.68041 38809 ft 495 kts 111°
2026-04-17 06:44 35.03741 21.75832 38787 ft 495 kts 111°
2026-04-17 06:44 35.01214 21.83596 38789 ft 495 kts 111°
2026-04-17 06:45 34.98679 21.91362 38783 ft 495 kts 111°
2026-04-17 06:45 34.96130 21.99148 38778 ft 495 kts 111°
2026-04-17 06:46 34.93576 22.06930 38772 ft 496 kts 112°
2026-04-17 06:46 34.91028 22.14676 38769 ft 496 kts 112°
2026-04-17 06:47 34.88460 22.22458 38762 ft 496 kts 112°
2026-04-17 06:47 34.85891 22.30226 38777 ft 496 kts 112°
2026-04-17 06:48 34.83323 22.37971 38770 ft 496 kts 112°
2026-04-17 06:48 34.80743 22.45735 38767 ft 496 kts 112°
2026-04-17 06:49 34.78152 22.53511 38764 ft 496 kts 112°
2026-04-17 06:49 34.75560 22.61268 38757 ft 497 kts 112°
2026-04-17 06:50 34.72959 22.69036 38749 ft 497 kts 112°
2026-04-17 06:50 34.70359 22.76778 38746 ft 497 kts 112°
2026-04-17 06:51 34.67748 22.84533 38735 ft 498 kts 112°
2026-04-17 06:51 34.65127 22.92299 38736 ft 498 kts 112°
2026-04-17 06:52 34.62484 23.00045 38728 ft 498 kts 115°
2026-04-17 06:52 34.59340 23.07532 38729 ft 498 kts 118°
2026-04-17 06:53 34.56181 23.14985 38722 ft 498 kts 118°
2026-04-17 06:53 34.53032 23.22404 38707 ft 499 kts 118°
2026-04-17 06:54 34.49849 23.29888 38723 ft 499 kts 118°
2026-04-17 06:54 34.46685 23.37308 38711 ft 499 kts 118°
2026-04-17 06:55 34.43490 23.44787 38704 ft 499 kts 118°
2026-04-17 06:55 34.40310 23.52214 38694 ft 499 kts 118°
2026-04-17 06:56 34.37108 23.59672 38696 ft 500 kts 118°
2026-04-17 06:56 34.33921 23.67082 38684 ft 500 kts 119°
2026-04-17 06:57 34.30722 23.74507 38690 ft 499 kts 119°
2026-04-17 06:57 34.27499 23.81969 38663 ft 499 kts 119°
2026-04-17 06:58 34.24302 23.89354 38657 ft 498 kts 119°
2026-04-17 06:58 34.21100 23.96734 38656 ft 499 kts 119°
2026-04-17 06:59 34.17886 24.04128 38633 ft 499 kts 119°
2026-04-17 06:59 34.14662 24.11530 38652 ft 499 kts 119°
2026-04-17 07:00 34.11425 24.18942 38663 ft 499 kts 119°
2026-04-17 07:00 34.08182 24.26356 38646 ft 500 kts 119°
2026-04-17 07:01 34.04951 24.33723 38660 ft 500 kts 119°
2026-04-17 07:01 34.01716 24.41087 38640 ft 500 kts 120°
2026-04-17 07:02 33.97545 24.47623 38671 ft 490 kts 141°
2026-04-17 07:02 33.92469 24.53100 38620 ft 492 kts 141°
2026-04-17 07:03 33.87351 24.58603 38629 ft 493 kts 141°
2026-04-17 07:03 33.82260 24.64069 38622 ft 494 kts 141°
2026-04-17 07:04 33.77129 24.69569 38617 ft 494 kts 141°
2026-04-17 07:04 33.71986 24.75067 38621 ft 494 kts 141°
2026-04-17 07:05 33.66879 24.80524 38619 ft 495 kts 141°
2026-04-17 07:05 33.61733 24.86010 38614 ft 495 kts 142°
2026-04-17 07:06 33.56607 24.91467 38609 ft 495 kts 142°
2026-04-17 07:06 33.51460 24.96936 38612 ft 495 kts 142°
2026-04-17 07:07 33.46288 25.02424 38607 ft 496 kts 142°
2026-04-17 07:07 33.41132 25.07884 38601 ft 496 kts 142°
2026-04-17 07:08 33.35972 25.13342 38596 ft 496 kts 142°
2026-04-17 07:08 33.30817 25.18783 38592 ft 497 kts 142°
2026-04-17 07:09 33.25619 25.24260 38594 ft 497 kts 142°
2026-04-17 07:09 33.20456 25.29693 38596 ft 497 kts 142°
2026-04-17 07:10 33.15255 25.35157 38594 ft 498 kts 142°
2026-04-17 07:10 33.10056 25.40608 38591 ft 498 kts 142°
2026-04-17 07:11 33.04858 25.46053 38588 ft 498 kts 143°
2026-04-17 07:11 32.99656 25.51489 38587 ft 498 kts 143°
2026-04-17 07:12 32.94467 25.56903 38586 ft 499 kts 143°
2026-04-17 07:12 32.89237 25.62354 38588 ft 499 kts 143°
2026-04-17 07:13 32.84033 25.67767 38575 ft 500 kts 144°
2026-04-17 07:13 32.78778 25.73225 38582 ft 500 kts 144°
2026-04-17 07:14 32.73575 25.78618 38588 ft 500 kts 144°
2026-04-17 07:14 32.68321 25.84057 38586 ft 499 kts 144°
2026-04-17 07:15 32.63105 25.89450 38580 ft 499 kts 144°
2026-04-17 07:15 32.59220 25.93459 38494 ft 496 kts 144°
2026-04-17 07:15 32.56652 25.96107 38677 ft 491 kts 144°
2026-04-17 07:16 32.54056 25.98780 38513 ft 491 kts 144°
2026-04-17 07:16 32.48966 26.04018 38578 ft 486 kts 144°
2026-04-17 07:17 32.43871 26.09252 38586 ft 481 kts 144°
2026-04-17 07:17 32.36344 26.16970 38584 ft 477 kts 145°
2026-04-17 07:18 32.31359 26.22072 38596 ft 475 kts 145°
2026-04-17 07:18 32.26361 26.27180 38591 ft 473 kts 145°
2026-04-17 07:19 32.21401 26.32241 38598 ft 472 kts 145°
2026-04-17 07:19 32.16457 26.37277 38601 ft 470 kts 145°
2026-04-17 07:20 32.11525 26.42297 38605 ft 469 kts 146°
2026-04-17 07:20 32.06572 26.47327 38593 ft 468 kts 146°
2026-04-17 07:21 32.01653 26.52318 38596 ft 468 kts 146°
2026-04-17 07:21 31.96753 26.57281 38615 ft 467 kts 146°
2026-04-17 07:22 31.92985 26.61089 38666 ft 470 kts 146°
2026-04-17 07:22 31.87972 26.66155 38665 ft 476 kts 146°
2026-04-17 07:23 31.82929 26.71242 38630 ft 481 kts 147°
2026-04-17 07:23 31.77840 26.76367 38627 ft 485 kts 146°
2026-04-17 07:24 31.72715 26.81519 38633 ft 487 kts 146°
2026-04-17 07:24 31.67548 26.86710 38633 ft 490 kts 147°
2026-04-17 07:25 31.62370 26.91901 38642 ft 491 kts 147°
2026-04-17 07:25 31.57172 26.97107 38649 ft 493 kts 147°
2026-04-17 07:26 31.51944 27.02330 38636 ft 494 kts 147°
2026-04-17 07:26 31.46712 27.07553 38642 ft 495 kts 147°
2026-04-17 07:27 31.41476 27.12771 38658 ft 496 kts 147°
2026-04-17 07:27 31.36200 27.18022 38647 ft 496 kts 147°
2026-04-17 07:28 31.30940 27.23202 38677 ft 494 kts 149°
2026-04-17 07:28 31.25547 27.28169 38674 ft 495 kts 149°
2026-04-17 07:29 31.20146 27.33155 38710 ft 495 kts 149°
2026-04-17 07:29 31.14741 27.38139 38703 ft 496 kts 149°
2026-04-17 07:30 31.09343 27.43110 38704 ft 496 kts 149°
2026-04-17 07:30 31.03932 27.48084 38698 ft 496 kts 149°
2026-04-17 07:31 30.98493 27.53079 38702 ft 496 kts 149°
2026-04-17 07:31 30.93078 27.58040 38689 ft 497 kts 149°
2026-04-17 07:32 30.87637 27.63021 38685 ft 498 kts 149°
2026-04-17 07:32 30.82221 27.67974 38688 ft 498 kts 150°
2026-04-17 07:33 30.76775 27.72942 38705 ft 497 kts 150°
2026-04-17 07:33 30.71324 27.77910 38712 ft 497 kts 150°
2026-04-17 07:34 30.65899 27.82846 38739 ft 497 kts 150°
2026-04-17 07:34 30.60471 27.87776 38735 ft 497 kts 150°
2026-04-17 07:35 30.55010 27.92731 38735 ft 498 kts 150°
2026-04-17 07:35 30.49565 27.97665 38722 ft 499 kts 150°
2026-04-17 07:36 30.44101 28.02608 38733 ft 499 kts 150°
2026-04-17 07:36 30.38624 28.07555 38745 ft 500 kts 150°
2026-04-17 07:37 30.33138 28.12504 38728 ft 500 kts 150°
2026-04-17 07:37 30.27643 28.17452 38706 ft 501 kts 150°
2026-04-17 07:38 30.22144 28.22399 38728 ft 502 kts 150°
2026-04-17 07:38 30.16643 28.27336 38732 ft 502 kts 150°
2026-04-17 07:39 30.11131 28.32280 38723 ft 502 kts 150°
2026-04-17 07:39 30.05610 28.37225 38746 ft 503 kts 150°
2026-04-17 07:40 30.00093 28.42157 38768 ft 503 kts 150°
2026-04-17 07:40 29.94559 28.47099 38766 ft 503 kts 150°
2026-04-17 07:41 29.89022 28.52035 38756 ft 504 kts 150°
2026-04-17 07:41 29.83460 28.56986 38757 ft 504 kts 150°
2026-04-17 07:42 29.77915 28.61915 38772 ft 505 kts 151°
2026-04-17 07:42 29.72355 28.66853 38772 ft 506 kts 151°
2026-04-17 07:43 29.66791 28.71785 38774 ft 505 kts 151°
2026-04-17 07:43 29.64116 28.74447 38752 ft 517 kts 140°
2026-04-17 07:43 29.61892 28.77693 38823 ft 523 kts 135°
2026-04-17 07:44 29.57437 28.84343 38765 ft 523 kts 135°
2026-04-17 07:44 29.52991 28.90934 38771 ft 524 kts 135°
2026-04-17 07:45 29.48546 28.97507 38778 ft 525 kts 135°
2026-04-17 07:45 29.44094 29.04162 38775 ft 530 kts 130°
2026-04-17 07:46 29.42410 29.07999 38786 ft 543 kts 114°
2026-04-17 07:46 29.41543 29.12189 38817 ft 551 kts 99°
2026-04-17 07:46 29.41572 29.21002 38801 ft 555 kts 92°
2026-04-17 07:47 29.41501 29.29843 38800 ft 556 kts 93°
2026-04-17 07:47 29.41394 29.38700 38797 ft 557 kts 92°
2026-04-17 07:48 29.41279 29.47544 38794 ft 559 kts 92°
2026-04-17 07:48 29.41159 29.56449 38805 ft 560 kts 92°
2026-04-17 07:49 29.41033 29.65338 38809 ft 560 kts 93°
2026-04-17 07:49 29.40900 29.74244 38794 ft 560 kts 93°
2026-04-17 07:50 29.40760 29.83184 38792 ft 560 kts 93°
2026-04-17 07:50 29.40617 29.92079 38797 ft 560 kts 93°
2026-04-17 07:51 29.40465 30.00965 38806 ft 559 kts 93°
2026-04-17 07:51 29.40308 30.09887 38795 ft 560 kts 93°
2026-04-17 07:52 29.40146 30.18757 38796 ft 560 kts 93°
2026-04-17 07:52 29.39978 30.27680 38806 ft 560 kts 93°
2026-04-17 07:53 29.39313 30.36448 38795 ft 551 kts 110°
2026-04-17 07:53 29.37885 30.40465 38830 ft 539 kts 124°
2026-04-17 07:53 29.35791 30.43945 38789 ft 523 kts 140°
2026-04-17 07:54 29.30798 30.49976 38779 ft 522 kts 141°
2026-04-17 07:54 29.25788 30.55957 38784 ft 522 kts 142°
2026-04-17 07:55 29.20730 30.61976 38787 ft 523 kts 141°
2026-04-17 07:55 29.15696 30.67959 38770 ft 524 kts 142°
2026-04-17 07:56 29.10661 30.73932 38778 ft 523 kts 142°
2026-04-17 07:56 29.05596 30.79934 38787 ft 523 kts 142°
2026-04-17 07:57 29.00545 30.85907 38794 ft 523 kts 142°
2026-04-17 07:57 28.95503 30.91864 38781 ft 524 kts 142°
2026-04-17 07:58 28.90416 30.97863 38787 ft 524 kts 142°
2026-04-17 07:58 28.85375 31.03799 38799 ft 524 kts 142°
2026-04-17 07:59 28.80289 31.09780 38802 ft 524 kts 142°
2026-04-17 07:59 28.75216 31.15738 38812 ft 524 kts 142°
2026-04-17 08:00 28.70151 31.21677 38819 ft 525 kts 141°
2026-04-17 08:00 28.65239 31.27854 38829 ft 528 kts 139°
2026-04-17 08:01 28.60310 31.34067 38828 ft 528 kts 139°
2026-04-17 08:01 28.55390 31.40252 38841 ft 529 kts 139°
2026-04-17 08:02 28.50477 31.46422 38852 ft 529 kts 139°
2026-04-17 08:02 28.45531 31.52624 38853 ft 530 kts 139°
2026-04-17 08:03 28.40577 31.58826 38863 ft 530 kts 139°
2026-04-17 08:03 28.35625 31.65015 38865 ft 531 kts 140°
2026-04-17 08:04 28.30646 31.71227 38847 ft 531 kts 140°
2026-04-17 08:04 28.25692 31.77404 38852 ft 530 kts 140°
2026-04-17 08:05 28.20742 31.83564 38853 ft 529 kts 140°
2026-04-17 08:05 28.15772 31.89736 38863 ft 529 kts 140°
2026-04-17 08:06 28.10819 31.95883 38867 ft 529 kts 140°
2026-04-17 08:06 28.05848 32.02040 38866 ft 530 kts 140°
2026-04-17 08:07 28.01541 32.08812 38916 ft 543 kts 122°
2026-04-17 08:07 27.97957 32.16326 38891 ft 544 kts 124°
2026-04-17 08:08 27.94335 32.23842 38888 ft 545 kts 123°
2026-04-17 08:08 27.90706 32.31357 38900 ft 546 kts 124°
2026-04-17 08:09 27.87065 32.38890 38899 ft 547 kts 124°
2026-04-17 08:09 27.83417 32.46411 38896 ft 548 kts 123°
2026-04-17 08:10 27.79754 32.53959 38885 ft 549 kts 123°
2026-04-17 08:10 27.76062 32.61549 38887 ft 550 kts 124°
2026-04-17 08:11 27.72383 32.69101 38848 ft 551 kts 124°
2026-04-17 08:11 27.68704 32.76637 38851 ft 550 kts 124°
2026-04-17 08:12 27.65002 32.84210 38857 ft 549 kts 124°
2026-04-17 08:12 27.61320 32.91725 38858 ft 549 kts 124°
2026-04-17 08:13 27.57629 32.99245 38866 ft 548 kts 124°
2026-04-17 08:14 27.52102 33.10481 38856 ft 549 kts 124°
2026-04-17 08:14 27.48385 33.18024 38842 ft 550 kts 124°
2026-04-17 08:15 27.44687 33.25514 38829 ft 551 kts 124°
2026-04-17 08:15 27.40946 33.33081 38829 ft 552 kts 124°
2026-04-17 08:16 27.37213 33.40613 38821 ft 552 kts 124°
2026-04-17 08:16 27.33460 33.48175 38815 ft 552 kts 124°
2026-04-17 08:17 27.29707 33.55719 38804 ft 553 kts 124°
2026-04-17 08:17 27.25953 33.63248 38783 ft 554 kts 123°
2026-04-17 08:18 27.22163 33.70850 38762 ft 554 kts 124°
2026-04-17 08:18 27.18406 33.78362 38762 ft 554 kts 124°
2026-04-17 08:19 27.15362 33.86420 38786 ft 558 kts 116°
2026-04-17 08:19 27.12495 33.94488 38783 ft 559 kts 116°
2026-04-17 08:20 27.09612 34.02587 38771 ft 559 kts 115°
2026-04-17 08:20 27.06727 34.10679 38788 ft 560 kts 115°
2026-04-17 08:21 27.03815 34.18819 38784 ft 560 kts 116°
2026-04-17 08:21 27.00904 34.26937 38788 ft 561 kts 116°
2026-04-17 08:22 26.97992 34.35050 38785 ft 561 kts 116°
2026-04-17 08:22 26.95060 34.43195 38781 ft 562 kts 115°
2026-04-17 08:23 26.92151 34.51251 38787 ft 563 kts 115°
2026-04-17 08:23 26.89212 34.59383 38797 ft 563 kts 115°
2026-04-17 08:24 26.86266 34.67524 38776 ft 564 kts 116°
2026-04-17 08:24 26.83329 34.75612 38768 ft 563 kts 116°
2026-04-17 08:25 26.80386 34.83708 38774 ft 563 kts 116°
2026-04-17 08:25 26.77428 34.91823 38794 ft 563 kts 115°
2026-04-17 08:26 26.74467 34.99929 38786 ft 563 kts 115°
2026-04-17 08:26 26.71516 35.07988 38782 ft 564 kts 116°
2026-04-17 08:27 26.68549 35.16077 38784 ft 564 kts 115°
2026-04-17 08:27 26.65558 35.24218 38782 ft 565 kts 115°
2026-04-17 08:28 26.62574 35.32323 38779 ft 565 kts 115°
2026-04-17 08:28 26.59583 35.40424 38789 ft 566 kts 115°
2026-04-17 08:29 26.56581 35.48545 38805 ft 566 kts 116°
2026-04-17 08:29 26.53504 35.56616 38800 ft 566 kts 116°
2026-04-17 08:30 26.50418 35.64695 38813 ft 567 kts 116°
2026-04-17 08:30 26.47330 35.72764 38802 ft 567 kts 117°
2026-04-17 08:31 26.44250 35.80798 38799 ft 566 kts 116°
2026-04-17 08:31 26.41151 35.88862 38804 ft 566 kts 116°
2026-04-17 08:32 26.38062 35.96894 38795 ft 566 kts 116°
2026-04-17 08:32 26.34935 36.04991 38800 ft 566 kts 116°
2026-04-17 08:33 26.31837 36.13016 38802 ft 567 kts 116°
2026-04-17 08:33 26.28734 36.21027 38803 ft 567 kts 116°
2026-04-17 08:34 26.25593 36.29120 38805 ft 568 kts 116°
2026-04-17 08:34 26.22457 36.37193 38797 ft 568 kts 116°
2026-04-17 08:35 26.19349 36.45261 38786 ft 570 kts 112°
2026-04-17 08:35 26.18426 36.49497 38794 ft 572 kts 96°
2026-04-17 08:35 26.18364 36.53930 38828 ft 569 kts 81°
2026-04-17 08:36 26.19324 36.62632 38806 ft 570 kts 80°
2026-04-17 08:36 26.20204 36.71332 38792 ft 570 kts 82°
2026-04-17 08:37 26.21075 36.80095 38802 ft 569 kts 81°
2026-04-17 08:37 26.21936 36.88806 38814 ft 569 kts 81°
2026-04-17 08:38 26.22801 36.97584 38815 ft 569 kts 81°
2026-04-17 08:38 26.23652 37.06295 38842 ft 568 kts 81°
2026-04-17 08:39 26.24496 37.14991 38869 ft 568 kts 82°
2026-04-17 08:39 26.25341 37.23735 38909 ft 568 kts 81°
2026-04-17 08:40 26.26181 37.32510 38961 ft 567 kts 81°
2026-04-17 08:40 26.27007 37.41201 39002 ft 567 kts 81°
2026-04-17 08:41 26.27834 37.49893 39037 ft 568 kts 81°
2026-04-17 08:41 26.28654 37.58646 39039 ft 568 kts 81°
2026-04-17 08:42 26.29473 37.67397 39010 ft 569 kts 82°
2026-04-17 08:42 26.30287 37.76166 38988 ft 569 kts 82°
2026-04-17 08:43 26.31087 37.84878 38984 ft 568 kts 82°
2026-04-17 08:43 26.31891 37.93610 38963 ft 568 kts 82°
2026-04-17 08:44 26.32686 38.02365 38956 ft 568 kts 82°
2026-04-17 08:44 26.33469 38.11077 38970 ft 567 kts 82°
2026-04-17 08:45 26.34258 38.19833 38975 ft 567 kts 82°
2026-04-17 08:45 26.34956 38.28534 38986 ft 567 kts 84°
2026-04-17 08:46 26.35558 38.37309 39003 ft 567 kts 83°
2026-04-17 08:46 26.36154 38.45994 39012 ft 566 kts 83°
2026-04-17 08:47 26.36746 38.54752 39029 ft 566 kts 83°
2026-04-17 08:47 26.37330 38.63478 39063 ft 566 kts 83°
2026-04-17 08:48 26.37913 38.72194 39062 ft 565 kts 83°
2026-04-17 08:48 26.38487 38.80882 39068 ft 564 kts 84°
2026-04-17 08:49 26.39057 38.89587 39094 ft 564 kts 84°
2026-04-17 08:49 26.39620 38.98307 39094 ft 563 kts 83°
2026-04-17 08:50 26.40176 39.06990 39097 ft 563 kts 83°
2026-04-17 08:50 26.40732 39.15694 39108 ft 563 kts 84°
2026-04-17 08:51 26.41277 39.24366 39110 ft 562 kts 83°
2026-04-17 08:51 26.41815 39.32999 39125 ft 562 kts 84°
2026-04-17 08:52 26.42354 39.41723 39125 ft 562 kts 84°
2026-04-17 08:52 26.42884 39.50390 39107 ft 563 kts 83°
2026-04-17 08:53 26.43405 39.59078 39130 ft 562 kts 83°
2026-04-17 08:53 26.43775 39.65180 39074 ft 558 kts 84°
2026-04-17 08:54 26.44287 39.73770 39081 ft 552 kts 84°
2026-04-17 08:54 26.44785 39.82250 39133 ft 547 kts 84°
2026-04-17 08:55 26.45274 39.90628 39120 ft 543 kts 84°
2026-04-17 08:55 26.45757 39.99005 39144 ft 540 kts 84°
2026-04-17 08:56 26.46231 40.07333 39145 ft 538 kts 84°
2026-04-17 08:56 26.46697 40.15575 39130 ft 536 kts 84°
2026-04-17 08:57 26.47160 40.23838 39138 ft 534 kts 84°
2026-04-17 08:57 26.47617 40.32102 39132 ft 532 kts 84°
2026-04-17 08:58 26.48066 40.40289 39122 ft 532 kts 84°
2026-04-17 08:58 26.48510 40.48512 39101 ft 532 kts 84°
2026-04-17 08:59 26.48951 40.56729 39107 ft 531 kts 84°
2026-04-17 08:59 26.49386 40.64919 39114 ft 531 kts 84°
2026-04-17 09:00 26.49815 40.73122 39083 ft 530 kts 84°
2026-04-17 09:00 26.50242 40.81316 39083 ft 528 kts 84°
2026-04-17 09:01 26.50659 40.89433 39082 ft 527 kts 85°
2026-04-17 09:01 26.51072 40.97580 39080 ft 526 kts 85°
2026-04-17 09:02 26.51323 41.05693 39072 ft 526 kts 93°
2026-04-17 09:02 26.50761 41.13830 39067 ft 526 kts 93°
2026-04-17 09:03 26.50197 41.21928 39095 ft 525 kts 94°
2026-04-17 09:03 26.49620 41.30035 39098 ft 525 kts 94°
2026-04-17 09:04 26.49041 41.38132 39102 ft 525 kts 94°
2026-04-17 09:04 26.48459 41.46217 39110 ft 525 kts 94°
2026-04-17 09:05 26.47869 41.54341 39107 ft 525 kts 94°
2026-04-17 09:05 26.47279 41.62407 39093 ft 525 kts 94°
2026-04-17 09:06 26.46683 41.70535 39069 ft 525 kts 94°
2026-04-17 09:06 26.46080 41.78615 39066 ft 524 kts 94°
2026-04-17 09:07 26.45477 41.86684 39072 ft 523 kts 94°
2026-04-17 09:07 26.44868 41.94727 39081 ft 522 kts 94°
2026-04-17 09:08 26.44352 42.01564 39095 ft 522 kts 94°
2026-04-17 09:08 26.43734 42.09626 39079 ft 523 kts 94°
2026-04-17 09:09 26.43115 42.17652 39073 ft 524 kts 94°
2026-04-17 09:09 26.42488 42.25741 39083 ft 524 kts 94°
2026-04-17 09:10 26.41538 42.37832 39074 ft 525 kts 94°
2026-04-17 09:10 26.40899 42.45940 39077 ft 525 kts 94°
2026-04-17 09:11 26.40251 42.54058 39075 ft 526 kts 94°
2026-04-17 09:11 26.39604 42.62162 39072 ft 526 kts 94°
2026-04-17 09:12 26.38950 42.70246 39048 ft 526 kts 94°
2026-04-17 09:12 26.38293 42.78337 39051 ft 526 kts 94°
2026-04-17 09:13 26.37627 42.86455 39053 ft 525 kts 94°
2026-04-17 09:13 26.36959 42.94556 39055 ft 525 kts 94°
2026-04-17 09:14 26.36292 43.02590 39058 ft 525 kts 94°
2026-04-17 09:14 26.35614 43.10688 39051 ft 524 kts 94°
2026-04-17 09:15 26.34932 43.18777 39053 ft 525 kts 95°
2026-04-17 09:15 26.34251 43.26800 39045 ft 525 kts 95°
2026-04-17 09:16 26.33558 43.34925 39045 ft 525 kts 94°
2026-04-17 09:16 26.32869 43.42954 39047 ft 525 kts 94°
2026-04-17 09:17 26.32171 43.51033 39044 ft 526 kts 94°
2026-04-17 09:17 26.31466 43.59125 39043 ft 527 kts 94°
2026-04-17 09:18 26.30755 43.67239 39026 ft 527 kts 95°
2026-04-17 09:18 26.30035 43.75374 39020 ft 526 kts 95°
2026-04-17 09:19 26.29857 43.83448 39051 ft 523 kts 87°
2026-04-17 09:19 26.29928 43.91546 39038 ft 523 kts 87°
2026-04-17 09:20 26.29993 43.99595 39034 ft 523 kts 88°
2026-04-17 09:20 26.30053 44.07691 39040 ft 523 kts 88°
2026-04-17 09:21 26.30109 44.15769 39043 ft 522 kts 87°
2026-04-17 09:21 26.30160 44.23871 39037 ft 522 kts 88°
2026-04-17 09:22 26.30207 44.31897 39040 ft 522 kts 88°
2026-04-17 09:22 26.30250 44.39952 39040 ft 522 kts 88°
2026-04-17 09:23 26.30287 44.48015 39043 ft 521 kts 88°
2026-04-17 09:23 26.30509 44.52038 39029 ft 516 kts 75°
2026-04-17 09:23 26.31512 44.55798 39114 ft 506 kts 63°
2026-04-17 09:24 26.33992 44.63110 39040 ft 508 kts 65°
2026-04-17 09:24 26.36453 44.70468 39025 ft 508 kts 65°
2026-04-17 09:25 26.38910 44.77827 39036 ft 508 kts 65°
2026-04-17 09:25 26.41363 44.85185 39048 ft 507 kts 65°
2026-04-17 09:26 26.43817 44.92558 39063 ft 506 kts 65°
2026-04-17 09:26 26.46258 44.99917 39064 ft 506 kts 65°
2026-04-17 09:27 26.48693 45.07264 39035 ft 506 kts 66°
2026-04-17 09:27 26.51108 45.14565 39052 ft 505 kts 65°
2026-04-17 09:28 26.53550 45.21956 39038 ft 505 kts 65°
2026-04-17 09:28 26.55970 45.29301 39043 ft 505 kts 65°
2026-04-17 09:29 26.58389 45.36657 39048 ft 505 kts 66°
2026-04-17 09:29 26.60798 45.43996 39054 ft 505 kts 65°
2026-04-17 09:30 26.63199 45.51323 39031 ft 505 kts 66°
2026-04-17 09:30 26.65601 45.58666 39024 ft 505 kts 66°
2026-04-17 09:31 26.68013 45.66060 39026 ft 505 kts 66°
2026-04-17 09:31 26.70407 45.73412 39029 ft 504 kts 66°
2026-04-17 09:32 26.72793 45.80752 39028 ft 503 kts 66°
2026-04-17 09:32 26.75168 45.88073 39006 ft 502 kts 66°
2026-04-17 09:33 26.77542 45.95402 38996 ft 502 kts 66°
2026-04-17 09:33 26.79904 46.02718 39017 ft 501 kts 66°
2026-04-17 09:34 26.82264 46.10036 39016 ft 501 kts 66°
2026-04-17 09:34 26.84613 46.17339 39026 ft 500 kts 66°
2026-04-17 09:35 26.86951 46.24616 39015 ft 500 kts 66°
2026-04-17 09:35 26.89303 46.31954 39015 ft 500 kts 66°
2026-04-17 09:36 26.91544 46.39311 38993 ft 502 kts 76°
2026-04-17 09:36 26.92369 46.47026 39020 ft 504 kts 82°
2026-04-17 09:37 26.93104 46.54842 39031 ft 504 kts 82°
2026-04-17 09:37 26.93827 46.62603 39024 ft 504 kts 82°
2026-04-17 09:38 26.94549 46.70406 38987 ft 504 kts 82°
2026-04-17 09:38 26.95268 46.78199 38994 ft 503 kts 82°
2026-04-17 09:39 26.95980 46.85984 38999 ft 503 kts 82°
2026-04-17 09:39 26.96683 46.93723 39014 ft 502 kts 82°
2026-04-17 09:40 26.97385 47.01483 39011 ft 502 kts 82°
2026-04-17 09:40 26.98078 47.09213 38998 ft 501 kts 82°
2026-04-17 09:41 26.98771 47.16981 39004 ft 501 kts 82°
2026-04-17 09:41 26.99461 47.24756 39007 ft 501 kts 82°
2026-04-17 09:42 27.00142 47.32473 39002 ft 501 kts 82°
2026-04-17 09:42 27.00823 47.40240 39007 ft 502 kts 82°
2026-04-17 09:43 27.01498 47.48001 39005 ft 502 kts 82°
2026-04-17 09:43 27.02171 47.55798 39006 ft 502 kts 82°
2026-04-17 09:44 27.02836 47.63535 39002 ft 502 kts 82°
2026-04-17 09:44 27.03498 47.71285 38986 ft 501 kts 83°
2026-04-17 09:45 27.04160 47.79095 38981 ft 501 kts 83°
2026-04-17 09:45 27.04809 47.86808 38979 ft 500 kts 83°
2026-04-17 09:46 27.05457 47.94549 38978 ft 500 kts 83°
2026-04-17 09:46 27.05902 48.02311 38980 ft 499 kts 85°
2026-04-17 09:47 27.06275 48.10038 38971 ft 499 kts 85°
2026-04-17 09:47 27.06648 48.17828 38978 ft 499 kts 85°
2026-04-17 09:48 27.07015 48.25565 38977 ft 499 kts 85°
2026-04-17 09:48 27.07380 48.33335 38962 ft 499 kts 85°
2026-04-17 09:49 27.07737 48.41066 38956 ft 499 kts 85°
2026-04-17 09:49 27.08093 48.48829 38945 ft 499 kts 85°
2026-04-17 09:50 27.08443 48.56588 38944 ft 499 kts 85°
2026-04-17 09:50 27.08787 48.64314 38946 ft 499 kts 85°
2026-04-17 09:51 27.09130 48.72091 38946 ft 498 kts 86°
2026-04-17 09:51 27.09468 48.79842 38934 ft 497 kts 85°
2026-04-17 09:52 27.09798 48.87551 38937 ft 497 kts 87°
2026-04-17 09:52 27.09522 48.95279 38929 ft 497 kts 92°
2026-04-17 09:53 27.09171 49.03003 38934 ft 497 kts 92°
2026-04-17 09:53 27.08816 49.10734 38945 ft 497 kts 92°
2026-04-17 09:54 27.08458 49.18420 38937 ft 497 kts 92°
2026-04-17 09:54 27.08093 49.26167 38954 ft 497 kts 92°
2026-04-17 09:55 27.07726 49.33887 38937 ft 498 kts 92°
2026-04-17 09:55 27.07353 49.41633 38937 ft 498 kts 92°
2026-04-17 09:56 27.06976 49.49349 38937 ft 498 kts 92°
2026-04-17 09:56 27.06594 49.57095 38944 ft 499 kts 92°
2026-04-17 09:57 27.06206 49.64885 38940 ft 499 kts 92°
2026-04-17 09:57 27.05815 49.72646 38940 ft 499 kts 92°
2026-04-17 09:58 27.05422 49.80363 38938 ft 499 kts 93°
2026-04-17 09:58 27.05022 49.88132 38926 ft 499 kts 93°
2026-04-17 09:59 27.04620 49.95849 38931 ft 498 kts 93°
2026-04-17 09:59 27.04614 50.03612 38940 ft 497 kts 88°
2026-04-17 10:00 27.04696 50.11356 38935 ft 497 kts 89°
2026-04-17 10:00 27.04767 50.19064 38929 ft 497 kts 88°
2026-04-17 10:01 27.04834 50.26831 38923 ft 497 kts 88°
2026-04-17 10:01 27.04891 50.34561 38918 ft 498 kts 90°
2026-04-17 10:02 27.04436 50.38396 38932 ft 495 kts 107°
2026-04-17 10:02 27.03223 50.41957 38990 ft 492 kts 115°
2026-04-17 10:02 27.00552 50.48999 38938 ft 494 kts 114°
2026-04-17 10:03 26.97862 50.56098 38931 ft 495 kts 114°
2026-04-17 10:03 26.95184 50.63157 38931 ft 495 kts 114°
2026-04-17 10:04 26.92672 50.69765 38918 ft 495 kts 114°
2026-04-17 10:04 26.90335 50.75901 38882 ft 501 kts 114°
2026-04-17 10:05 26.87599 50.83076 38929 ft 505 kts 115°
2026-04-17 10:05 26.84818 50.90353 38931 ft 508 kts 114°
2026-04-17 10:06 26.82013 50.97674 38918 ft 512 kts 114°
2026-04-17 10:06 26.79213 51.04979 38914 ft 514 kts 114°
2026-04-17 10:07 26.76548 51.12382 38926 ft 516 kts 110°
2026-04-17 10:07 26.74130 51.20000 38909 ft 518 kts 110°
2026-04-17 10:08 26.71709 51.27538 38928 ft 520 kts 110°
2026-04-17 10:08 26.69250 51.35170 38925 ft 521 kts 110°
2026-04-17 10:09 26.66795 51.42779 38923 ft 521 kts 111°
2026-04-17 10:09 26.64341 51.50364 38918 ft 522 kts 111°
2026-04-17 10:10 26.61869 51.57993 38924 ft 523 kts 110°
2026-04-17 10:11 26.58148 51.69440 38907 ft 524 kts 111°
2026-04-17 10:11 26.55666 51.77061 38922 ft 523 kts 111°
2026-04-17 10:12 26.53179 51.84676 38913 ft 524 kts 111°
2026-04-17 10:12 26.50693 51.92278 38916 ft 524 kts 111°
2026-04-17 10:13 26.48194 51.99903 38913 ft 524 kts 111°
2026-04-17 10:13 26.45684 52.07539 38906 ft 524 kts 111°
2026-04-17 10:14 26.43165 52.15120 38903 ft 524 kts 113°
2026-04-17 10:14 26.40403 52.22660 38896 ft 524 kts 113°
2026-04-17 10:15 26.37667 52.30153 38907 ft 523 kts 113°
2026-04-17 10:15 26.34938 52.37617 38904 ft 523 kts 113°
2026-04-17 10:16 26.32203 52.45087 38898 ft 523 kts 112°
2026-04-17 10:16 26.29451 52.52587 38900 ft 523 kts 112°
2026-04-17 10:17 26.26710 52.60036 38907 ft 523 kts 113°
2026-04-17 10:17 26.23957 52.67514 38897 ft 522 kts 113°
2026-04-17 10:18 26.21206 52.74965 38900 ft 522 kts 113°
2026-04-17 10:18 26.18457 52.82399 38890 ft 521 kts 113°
2026-04-17 10:19 26.15704 52.89830 38896 ft 520 kts 113°
2026-04-17 10:19 26.12942 52.97273 38897 ft 520 kts 113°
2026-04-17 10:20 26.10195 53.04663 38903 ft 519 kts 113°
2026-04-17 10:20 26.07426 53.12093 38903 ft 520 kts 113°
2026-04-17 10:21 26.04673 53.19468 38891 ft 520 kts 113°
2026-04-17 10:21 26.01899 53.26890 38895 ft 520 kts 113°
2026-04-17 10:22 25.99135 53.34268 38913 ft 521 kts 113°
2026-04-17 10:22 25.96344 53.41704 38900 ft 522 kts 113°
2026-04-17 10:23 25.93553 53.49150 38902 ft 523 kts 111°
2026-04-17 10:23 25.91437 53.56830 38911 ft 524 kts 107°
2026-04-17 10:24 25.89357 53.64585 38909 ft 524 kts 107°
2026-04-17 10:24 25.87281 53.72298 38902 ft 524 kts 107°
2026-04-17 10:25 25.85189 53.80048 38893 ft 524 kts 107°
2026-04-17 10:25 25.83103 53.87768 38896 ft 523 kts 107°
2026-04-17 10:26 25.81017 53.95459 38884 ft 523 kts 107°
2026-04-17 10:26 25.78920 54.03173 38874 ft 523 kts 107°
2026-04-17 10:27 25.76821 54.10876 38884 ft 522 kts 107°
2026-04-17 10:27 25.74717 54.18589 38882 ft 522 kts 107°
2026-04-17 10:28 25.72628 54.26215 38884 ft 521 kts 107°
2026-04-17 10:28 25.70524 54.33894 38871 ft 522 kts 107°
2026-04-17 10:29 25.68407 54.41600 38896 ft 521 kts 107°
2026-04-17 10:29 25.66303 54.49231 38896 ft 521 kts 107°
2026-04-17 10:30 25.64191 54.56882 38882 ft 521 kts 107°
2026-04-17 10:30 25.62072 54.64543 38884 ft 520 kts 107°
2026-04-17 10:31 25.59955 54.72178 38877 ft 519 kts 108°
2026-04-17 10:31 25.57834 54.79809 38875 ft 518 kts 108°
2026-04-17 10:32 25.55718 54.87395 38872 ft 518 kts 108°
2026-04-17 10:32 25.53604 54.94975 38885 ft 517 kts 108°
2026-04-17 10:33 25.51470 55.02603 38873 ft 517 kts 108°
2026-04-17 10:33 25.49349 55.10165 38877 ft 516 kts 108°
2026-04-17 10:34 25.47231 55.17699 38876 ft 515 kts 108°
2026-04-17 10:34 25.45103 55.25255 38891 ft 514 kts 108°
2026-04-17 10:35 25.42974 55.32797 38884 ft 514 kts 108°
2026-04-17 10:35 25.40850 55.40309 38895 ft 514 kts 108°
2026-04-17 10:36 25.38709 55.47858 38888 ft 513 kts 108°
2026-04-17 10:36 25.36577 55.55363 38900 ft 513 kts 108°
2026-04-17 10:37 25.34437 55.62884 38907 ft 513 kts 108°
2026-04-17 10:37 25.32295 55.70390 38891 ft 512 kts 109°
2026-04-17 10:38 25.30158 55.77866 38891 ft 512 kts 109°
2026-04-17 10:38 25.28018 55.85333 38892 ft 511 kts 109°
2026-04-17 10:39 25.25882 55.92775 38906 ft 511 kts 109°
2026-04-17 10:39 25.23732 56.00248 38910 ft 510 kts 109°
2026-04-17 10:40 25.21588 56.07682 38922 ft 509 kts 109°
2026-04-17 10:40 25.19445 56.15100 38936 ft 509 kts 109°
2026-04-17 10:41 25.17292 56.22536 38926 ft 509 kts 109°
2026-04-17 10:41 25.15151 56.29916 38937 ft 509 kts 109°
2026-04-17 10:42 25.12986 56.37364 38910 ft 509 kts 109°
2026-04-17 10:42 25.10821 56.44793 38889 ft 510 kts 109°
2026-04-17 10:43 25.08654 56.52216 38874 ft 511 kts 109°
2026-04-17 10:43 25.07074 56.59845 38894 ft 511 kts 102°
2026-04-17 10:44 25.05640 56.67472 38869 ft 512 kts 103°
2026-04-17 10:44 25.04178 56.75137 38871 ft 512 kts 103°
2026-04-17 10:45 25.02706 56.82822 38866 ft 512 kts 103°
2026-04-17 10:45 25.01239 56.90461 38864 ft 512 kts 103°
2026-04-17 10:46 24.99762 56.98131 38855 ft 512 kts 103°
2026-04-17 10:46 24.98283 57.05782 38860 ft 513 kts 103°
2026-04-17 10:47 24.96804 57.13424 38861 ft 513 kts 103°
2026-04-17 10:47 24.95308 57.21118 38863 ft 513 kts 103°
2026-04-17 10:48 24.93816 57.28771 38868 ft 513 kts 103°
2026-04-17 10:48 24.92316 57.36448 38867 ft 513 kts 103°
2026-04-17 10:49 24.90819 57.44079 38858 ft 513 kts 103°
2026-04-17 10:49 24.89311 57.51754 38864 ft 513 kts 103°
2026-04-17 10:50 24.87798 57.59431 38863 ft 513 kts 103°
2026-04-17 10:50 24.86285 57.67082 38855 ft 513 kts 103°
2026-04-17 10:51 24.84769 57.74735 38851 ft 513 kts 104°
2026-04-17 10:51 24.83284 57.82347 38833 ft 513 kts 100°
2026-04-17 10:52 24.82624 57.90161 38849 ft 513 kts 96°
2026-04-17 10:52 24.81996 57.97982 38849 ft 513 kts 96°
2026-04-17 10:53 24.81366 58.05754 38843 ft 513 kts 96°
2026-04-17 10:53 24.80730 58.13564 38843 ft 513 kts 96°
2026-04-17 10:54 24.80087 58.21388 38839 ft 513 kts 96°
2026-04-17 10:54 24.79443 58.29184 38846 ft 513 kts 96°
2026-04-17 10:55 24.78794 58.36987 38846 ft 513 kts 96°
2026-04-17 10:55 24.78144 58.44749 38847 ft 512 kts 96°
2026-04-17 10:56 24.77486 58.52549 38846 ft 512 kts 96°
2026-04-17 10:56 24.76828 58.60319 38842 ft 512 kts 96°
2026-04-17 10:57 24.76164 58.68103 38829 ft 512 kts 97°
2026-04-17 10:57 24.75500 58.75849 38840 ft 512 kts 96°
2026-04-17 10:58 24.74826 58.83667 38845 ft 511 kts 97°
2026-04-17 10:58 24.74153 58.91403 38844 ft 511 kts 97°
2026-04-17 10:59 24.73474 58.99165 38844 ft 511 kts 97°
2026-04-17 10:59 24.72793 59.06925 38853 ft 511 kts 97°
2026-04-17 11:00 24.72106 59.14690 38845 ft 510 kts 96°
2026-04-17 11:00 24.71418 59.22421 38839 ft 510 kts 96°
2026-04-17 11:01 24.70724 59.30192 38845 ft 510 kts 96°
2026-04-17 11:01 24.70028 59.37921 38851 ft 510 kts 97°
2026-04-17 11:02 24.69324 59.45691 38853 ft 510 kts 97°
2026-04-17 11:02 24.68623 59.53395 38841 ft 510 kts 97°
2026-04-17 11:03 24.67911 59.61169 38841 ft 510 kts 96°
2026-04-17 11:03 24.67202 59.68861 38840 ft 510 kts 97°
2026-04-17 11:04 24.66486 59.76588 38848 ft 509 kts 97°
2026-04-17 11:04 24.65770 59.84286 38844 ft 509 kts 97°
2026-04-17 11:05 24.65045 59.92027 38852 ft 508 kts 97°
2026-04-17 11:05 24.64319 59.99732 38840 ft 508 kts 97°
2026-04-17 11:06 24.63588 60.07459 38839 ft 508 kts 97°
2026-04-17 11:06 24.62856 60.15145 38846 ft 508 kts 97°
2026-04-17 11:07 24.62121 60.22830 38851 ft 508 kts 97°
2026-04-17 11:07 24.61375 60.30575 38849 ft 509 kts 96°
2026-04-17 11:08 24.60630 60.38279 38864 ft 508 kts 97°
2026-04-17 11:08 24.59880 60.45980 38857 ft 509 kts 97°
2026-04-17 11:09 24.59128 60.53675 38853 ft 509 kts 97°
2026-04-17 11:09 24.58368 60.61399 38864 ft 509 kts 96°
2026-04-17 11:10 24.58285 60.73006 38843 ft 509 kts 90°
2026-04-17 11:10 24.58289 60.80782 38841 ft 509 kts 90°
2026-04-17 11:11 24.58286 60.88556 38852 ft 509 kts 91°
2026-04-17 11:11 24.58280 60.96275 38844 ft 509 kts 90°
2026-04-17 11:12 24.58269 61.04036 38847 ft 509 kts 91°
2026-04-17 11:12 24.58255 61.11787 38836 ft 509 kts 90°
2026-04-17 11:13 24.58237 61.19556 38838 ft 509 kts 91°
2026-04-17 11:13 24.58215 61.27330 38836 ft 509 kts 91°
2026-04-17 11:14 24.58383 61.31190 38820 ft 509 kts 80°
2026-04-17 11:14 24.59370 61.34877 38873 ft 506 kts 65°
2026-04-17 11:14 24.61126 61.38186 38861 ft 503 kts 53°
2026-04-17 11:14 24.63130 61.41335 38860 ft 504 kts 54°
2026-04-17 11:15 24.67073 61.47699 38842 ft 506 kts 54°
2026-04-17 11:15 24.71038 61.54135 38848 ft 506 kts 54°
2026-04-17 11:16 24.74971 61.60525 38845 ft 507 kts 54°
2026-04-17 11:16 24.78921 61.66953 38837 ft 507 kts 54°
2026-04-17 11:17 24.82872 61.73393 38838 ft 507 kts 54°
2026-04-17 11:17 24.86801 61.79804 38830 ft 507 kts 54°
2026-04-17 11:18 24.90715 61.86201 38838 ft 507 kts 54°
2026-04-17 11:18 24.94646 61.92633 38838 ft 506 kts 54°
2026-04-17 11:19 24.98588 61.99089 38838 ft 506 kts 54°
2026-04-17 11:19 25.02500 62.05506 38835 ft 506 kts 54°
2026-04-17 11:20 25.06416 62.11940 38823 ft 507 kts 54°
2026-04-17 11:20 25.10352 62.18414 38835 ft 507 kts 54°
2026-04-17 11:21 25.14275 62.24880 38833 ft 507 kts 54°
2026-04-17 11:21 25.18195 62.31344 38831 ft 507 kts 54°
2026-04-17 11:22 25.22083 62.37765 38839 ft 507 kts 54°
2026-04-17 11:22 25.26012 62.44264 38847 ft 507 kts 54°
2026-04-17 11:23 25.29917 62.50729 38843 ft 507 kts 55°
2026-04-17 11:23 25.33800 62.57172 38846 ft 507 kts 54°
2026-04-17 11:24 25.37712 62.63668 38857 ft 507 kts 54°
2026-04-17 11:24 25.41624 62.70174 38835 ft 508 kts 55°
2026-04-17 11:25 25.45538 62.76691 38829 ft 508 kts 55°
2026-04-17 11:25 25.49428 62.83178 38827 ft 508 kts 55°
2026-04-17 11:26 25.53320 62.89677 38823 ft 508 kts 55°
2026-04-17 11:26 25.57216 62.96193 38829 ft 508 kts 55°
2026-04-17 11:27 25.61106 63.02707 38837 ft 507 kts 55°
2026-04-17 11:27 25.65003 63.09242 38836 ft 507 kts 55°
2026-04-17 11:28 25.68884 63.15760 38837 ft 507 kts 55°
2026-04-17 11:28 25.72750 63.22260 38851 ft 507 kts 55°
2026-04-17 11:29 25.76621 63.28778 38858 ft 507 kts 55°
2026-04-17 11:29 25.80501 63.35321 38861 ft 508 kts 56°
2026-04-17 11:30 25.84385 63.41881 38866 ft 508 kts 56°
2026-04-17 11:30 25.88230 63.48384 38875 ft 508 kts 56°
2026-04-17 11:31 25.92100 63.54939 38888 ft 508 kts 55°
2026-04-17 11:31 25.95970 63.61501 38909 ft 508 kts 55°
2026-04-17 11:32 25.99841 63.68074 38913 ft 508 kts 56°
2026-04-17 11:32 26.03552 63.74760 38926 ft 508 kts 58°
2026-04-17 11:33 26.07230 63.81415 38942 ft 508 kts 58°
2026-04-17 11:33 26.10928 63.88118 38943 ft 508 kts 58°
2026-04-17 11:34 26.14615 63.94806 38950 ft 507 kts 58°
2026-04-17 11:34 26.18294 64.01494 38950 ft 507 kts 58°
2026-04-17 11:35 26.21959 64.08164 38968 ft 508 kts 58°
2026-04-17 11:35 26.25632 64.14857 38964 ft 508 kts 58°
2026-04-17 11:36 26.29316 64.21584 38973 ft 508 kts 58°
2026-04-17 11:36 26.32984 64.28288 38991 ft 508 kts 58°
2026-04-17 11:37 26.36672 64.35040 38995 ft 509 kts 58°
2026-04-17 11:37 26.40332 64.41752 39018 ft 509 kts 58°
2026-04-17 11:38 26.44016 64.48511 39030 ft 509 kts 58°
2026-04-17 11:38 26.47675 64.55244 39041 ft 509 kts 58°
2026-04-17 11:39 26.51323 64.61962 39063 ft 509 kts 58°
2026-04-17 11:39 26.54983 64.68713 39048 ft 509 kts 59°
2026-04-17 11:40 26.58649 64.75486 39064 ft 508 kts 59°
2026-04-17 11:40 26.62305 64.82248 39072 ft 508 kts 59°
2026-04-17 11:41 26.65928 64.88963 39061 ft 508 kts 59°
2026-04-17 11:41 26.69571 64.95722 39062 ft 508 kts 59°
2026-04-17 11:42 26.73204 65.02473 39045 ft 509 kts 59°
2026-04-17 11:42 26.76836 65.09234 39084 ft 508 kts 59°
2026-04-17 11:43 26.80462 65.15994 39104 ft 508 kts 59°
2026-04-17 11:43 26.84106 65.22798 39124 ft 508 kts 59°
2026-04-17 11:44 26.87734 65.29583 39120 ft 508 kts 59°
2026-04-17 11:44 26.91357 65.36365 39100 ft 508 kts 59°
2026-04-17 11:45 26.94978 65.43159 39065 ft 509 kts 59°
2026-04-17 11:45 26.98596 65.49952 39058 ft 510 kts 59°
2026-04-17 11:46 27.02231 65.56795 39076 ft 510 kts 59°
2026-04-17 11:46 27.05845 65.63605 39098 ft 510 kts 59°
2026-04-17 11:47 27.09475 65.70454 39107 ft 511 kts 60°
2026-04-17 11:47 27.13094 65.77296 39099 ft 511 kts 59°
2026-04-17 11:48 27.16723 65.84168 39096 ft 511 kts 60°
2026-04-17 11:48 27.20332 65.91009 39087 ft 511 kts 60°
2026-04-17 11:49 27.23952 65.97886 39076 ft 512 kts 60°
2026-04-17 11:49 27.27260 66.04907 39053 ft 508 kts 74°
2026-04-17 11:50 27.28660 66.12622 39059 ft 507 kts 81°
2026-04-17 11:50 27.29914 66.20434 39092 ft 508 kts 82°
2026-04-17 11:51 27.31162 66.28268 39096 ft 509 kts 82°
2026-04-17 11:51 27.32401 66.36083 39092 ft 509 kts 82°
2026-04-17 11:52 27.33636 66.43896 39103 ft 510 kts 82°
2026-04-17 11:52 27.34872 66.51739 39109 ft 510 kts 82°
2026-04-17 11:53 27.36103 66.59586 39102 ft 511 kts 82°
2026-04-17 11:53 27.37332 66.67458 39080 ft 512 kts 82°
2026-04-17 11:54 27.38566 66.75379 39066 ft 512 kts 82°
2026-04-17 11:54 27.39781 66.83222 39068 ft 513 kts 82°
2026-04-17 11:55 27.41002 66.91129 39077 ft 513 kts 82°
2026-04-17 11:55 27.42216 66.99007 39081 ft 513 kts 82°
2026-04-17 11:56 27.43425 67.06894 39065 ft 514 kts 82°
2026-04-17 11:56 27.44639 67.14853 39044 ft 515 kts 82°
2026-04-17 11:57 27.45845 67.22770 38986 ft 516 kts 81°
2026-04-17 11:57 27.47673 67.30566 38944 ft 518 kts 77°
2026-04-17 11:58 27.49528 67.38430 38891 ft 519 kts 76°
2026-04-17 11:58 27.51362 67.46260 38833 ft 520 kts 76°
2026-04-17 11:59 27.53197 67.54123 38763 ft 522 kts 76°
2026-04-17 11:59 27.55045 67.62058 38749 ft 522 kts 76°
2026-04-17 12:00 27.56871 67.69929 38710 ft 523 kts 77°
2026-04-17 12:00 27.58712 67.77878 38705 ft 523 kts 77°
2026-04-17 12:01 27.60538 67.85780 38692 ft 524 kts 77°
2026-04-17 12:01 27.62358 67.93695 38692 ft 524 kts 77°
2026-04-17 12:02 27.64180 68.01627 38691 ft 524 kts 77°
2026-04-17 12:02 27.66007 68.09599 38693 ft 525 kts 77°
2026-04-17 12:03 27.67830 68.17592 38696 ft 526 kts 77°
2026-04-17 12:03 27.69638 68.25530 38694 ft 527 kts 77°
2026-04-17 12:04 27.71452 68.33537 38698 ft 528 kts 76°
2026-04-17 12:04 27.73270 68.41560 38705 ft 528 kts 76°
2026-04-17 12:05 27.75086 68.49606 38709 ft 529 kts 76°
2026-04-17 12:05 27.76889 68.57626 38713 ft 530 kts 76°
2026-04-17 12:06 27.78690 68.65650 38712 ft 530 kts 76°
2026-04-17 12:06 27.80500 68.73737 38703 ft 530 kts 76°
2026-04-17 12:07 27.82297 68.81799 38696 ft 530 kts 76°
2026-04-17 12:07 27.84092 68.89857 38689 ft 530 kts 76°
2026-04-17 12:08 27.85871 68.97889 38696 ft 531 kts 76°
2026-04-17 12:08 27.87654 69.05949 38706 ft 531 kts 75°
2026-04-17 12:09 27.89443 69.14066 38706 ft 532 kts 76°
2026-04-17 12:09 27.91216 69.22126 38701 ft 532 kts 76°
2026-04-17 12:10 27.92856 69.30308 38704 ft 533 kts 76°
2026-04-17 12:10 27.94473 69.38447 38713 ft 533 kts 76°
2026-04-17 12:11 27.96094 69.46622 38721 ft 533 kts 77°
2026-04-17 12:12 27.98512 69.58872 38719 ft 534 kts 77°
2026-04-17 12:12 28.00122 69.67075 38709 ft 534 kts 77°
2026-04-17 12:13 28.01718 69.75226 38711 ft 533 kts 76°
2026-04-17 12:13 28.03319 69.83418 38715 ft 532 kts 77°
2026-04-17 12:14 28.04907 69.91588 38717 ft 532 kts 76°
2026-04-17 12:14 28.06495 69.99772 38717 ft 532 kts 76°
2026-04-17 12:15 28.08073 70.07928 38714 ft 532 kts 76°
2026-04-17 12:15 28.09653 70.16142 38715 ft 532 kts 76°
2026-04-17 12:16 28.11225 70.24332 38719 ft 533 kts 76°
2026-04-17 12:16 28.12793 70.32519 38713 ft 533 kts 76°
2026-04-17 12:17 28.14343 70.40651 38708 ft 530 kts 76°
2026-04-17 12:17 28.15897 70.48829 38711 ft 531 kts 76°
2026-04-17 12:18 28.17444 70.57000 38718 ft 531 kts 76°
2026-04-17 12:18 28.18980 70.65141 38726 ft 530 kts 76°
2026-04-17 12:19 28.20515 70.73288 38720 ft 530 kts 76°
2026-04-17 12:19 28.22041 70.81440 38720 ft 530 kts 76°
2026-04-17 12:20 28.23563 70.89592 38717 ft 531 kts 76°
2026-04-17 12:20 28.25086 70.97769 38726 ft 531 kts 76°
2026-04-17 12:21 28.26604 71.05953 38725 ft 530 kts 76°
2026-04-17 12:21 28.28116 71.14130 38725 ft 530 kts 76°
2026-04-17 12:22 28.29610 71.22240 38707 ft 529 kts 76°
2026-04-17 12:22 28.30372 71.26383 38257 ft 533 kts 76°
2026-04-17 12:22 28.31119 71.30464 37991 ft 525 kts 76°
2026-04-17 12:22 28.31856 71.34495 37765 ft 519 kts 76°
2026-04-17 12:23 28.32579 71.38450 37530 ft 518 kts 76°
2026-04-17 12:23 28.33313 71.42464 37296 ft 516 kts 76°
2026-04-17 12:23 28.34034 71.46429 37069 ft 513 kts 76°
2026-04-17 12:23 28.34751 71.50371 36839 ft 512 kts 76°
2026-04-17 12:24 28.35467 71.54316 36610 ft 510 kts 76°
2026-04-17 12:24 28.36183 71.58270 36385 ft 507 kts 76°
2026-04-17 12:24 28.36890 71.62174 36162 ft 506 kts 76°
2026-04-17 12:24 28.37595 71.66083 35943 ft 504 kts 76°
2026-04-17 12:25 28.38288 71.69935 35704 ft 501 kts 76°
2026-04-17 12:25 28.38988 71.73824 35460 ft 499 kts 76°
2026-04-17 12:25 28.39677 71.77650 35230 ft 497 kts 76°
2026-04-17 12:25 28.40367 71.81493 34994 ft 496 kts 76°
2026-04-17 12:26 28.41052 71.85327 34757 ft 495 kts 76°
2026-04-17 12:26 28.41734 71.89145 34533 ft 491 kts 76°
2026-04-17 12:26 28.42411 71.92934 34304 ft 489 kts 75°
2026-04-17 12:26 28.43082 71.96701 34065 ft 488 kts 76°
2026-04-17 12:27 28.43757 72.00500 33842 ft 486 kts 75°
2026-04-17 12:27 28.44418 72.04216 33620 ft 484 kts 75°
2026-04-17 12:27 28.45077 72.07935 33396 ft 481 kts 75°
2026-04-17 12:27 28.45738 72.11679 33191 ft 479 kts 75°
2026-04-17 12:28 28.46393 72.15378 32978 ft 477 kts 75°
2026-04-17 12:28 28.47036 72.19019 32766 ft 476 kts 75°
2026-04-17 12:28 28.47674 72.22726 32555 ft 474 kts 78°
2026-04-17 12:28 28.47762 72.26444 32320 ft 477 kts 94°
2026-04-17 12:29 28.47243 72.30187 32144 ft 475 kts 98°
2026-04-17 12:29 28.46702 72.33849 31942 ft 475 kts 98°
2026-04-17 12:29 28.46146 72.37557 31734 ft 474 kts 98°
2026-04-17 12:29 28.45597 72.41209 31434 ft 472 kts 98°
2026-04-17 12:30 28.45047 72.44865 31021 ft 468 kts 98°
2026-04-17 12:30 28.44497 72.48504 30623 ft 462 kts 98°
2026-04-17 12:30 28.43961 72.52056 30238 ft 458 kts 98°
2026-04-17 12:30 28.43420 72.55622 29855 ft 455 kts 98°
2026-04-17 12:31 28.42890 72.59127 29473 ft 453 kts 98°
2026-04-17 12:31 28.42352 72.62651 29098 ft 449 kts 98°
2026-04-17 12:31 28.41820 72.66149 28731 ft 446 kts 99°
2026-04-17 12:31 28.41298 72.69572 28350 ft 444 kts 99°
2026-04-17 12:32 28.40773 72.73002 27966 ft 441 kts 99°
2026-04-17 12:32 28.40247 72.76437 27585 ft 437 kts 99°
2026-04-17 12:32 28.39729 72.79816 27205 ft 435 kts 99°
2026-04-17 12:32 28.39209 72.83198 26774 ft 433 kts 99°
2026-04-17 12:33 28.38693 72.86550 26394 ft 428 kts 99°
2026-04-17 12:33 28.38189 72.89825 26016 ft 427 kts 100°
2026-04-17 12:33 28.37676 72.93138 25639 ft 426 kts 100°
2026-04-17 12:33 28.37167 72.96433 25265 ft 422 kts 100°
2026-04-17 12:34 28.36657 72.99722 24887 ft 419 kts 100°
2026-04-17 12:34 28.36158 73.02943 24513 ft 416 kts 100°
2026-04-17 12:34 28.35653 73.06187 24119 ft 415 kts 101°
2026-04-17 12:34 28.35151 73.09413 23729 ft 413 kts 101°
2026-04-17 12:35 28.34656 73.12588 23453 ft 408 kts 101°
2026-04-17 12:35 28.34165 73.15732 23189 ft 408 kts 101°
2026-04-17 12:35 28.33669 73.18896 22930 ft 407 kts 101°
2026-04-17 12:35 28.33171 73.22073 22666 ft 405 kts 101°
2026-04-17 12:37 28.29247 73.46935 20998 ft 469 kts 101°
2026-04-17 12:37 28.28665 73.50598 20753 ft 465 kts 101°
2026-04-17 12:38 28.28094 73.54192 20504 ft 462 kts 101°
2026-04-17 12:38 28.27525 73.57755 20254 ft 460 kts 101°
2026-04-17 12:38 28.26955 73.61331 20003 ft 459 kts 101°
2026-04-17 12:38 28.26382 73.64909 19782 ft 457 kts 100°
2026-04-17 12:39 28.25824 73.68393 19771 ft 453 kts 101°
2026-04-17 12:39 28.25260 73.71910 19796 ft 455 kts 101°
2026-04-17 12:39 28.24685 73.75478 19776 ft 456 kts 101°
2026-04-17 12:39 28.24215 73.78403 19781 ft 458 kts 101°
2026-04-17 12:40 28.23641 73.81951 19785 ft 458 kts 101°
2026-04-17 12:40 28.23069 73.85497 19785 ft 459 kts 101°
2026-04-17 12:40 28.22496 73.89035 19784 ft 458 kts 101°
2026-04-17 12:40 28.21921 73.92576 19786 ft 458 kts 101°
2026-04-17 12:41 28.21347 73.96121 19780 ft 459 kts 101°
2026-04-17 12:41 28.20769 73.99668 19780 ft 458 kts 101°
2026-04-17 12:41 28.20189 74.03233 19785 ft 458 kts 101°
2026-04-17 12:41 28.19610 74.06776 19784 ft 457 kts 101°
2026-04-17 12:42 28.19038 74.10335 19791 ft 455 kts 99°
2026-04-17 12:42 28.18943 74.13915 19775 ft 457 kts 87°
2026-04-17 12:42 28.19058 74.17502 19796 ft 457 kts 88°
2026-04-17 12:42 28.19159 74.21081 19797 ft 458 kts 88°
2026-04-17 12:43 28.19256 74.24721 19796 ft 458 kts 88°
2026-04-17 12:43 28.19349 74.28332 19793 ft 458 kts 88°
2026-04-17 12:43 28.19441 74.31937 19795 ft 458 kts 88°
2026-04-17 12:43 28.19532 74.35527 19801 ft 458 kts 88°
2026-04-17 12:44 28.19621 74.39129 19803 ft 456 kts 88°
2026-04-17 12:44 28.19710 74.42727 19808 ft 458 kts 88°
2026-04-17 12:44 28.19796 74.46290 19809 ft 458 kts 88°
2026-04-17 12:44 28.19883 74.49902 19811 ft 458 kts 88°
2026-04-17 12:45 28.19968 74.53480 19807 ft 457 kts 88°
2026-04-17 12:45 28.20053 74.57099 19808 ft 459 kts 88°
2026-04-17 12:45 28.20137 74.60711 19814 ft 459 kts 88°
2026-04-17 12:45 28.20221 74.64328 19813 ft 459 kts 88°
2026-04-17 12:46 28.20302 74.67905 19812 ft 457 kts 89°
2026-04-17 12:46 28.20382 74.71523 19812 ft 457 kts 89°
2026-04-17 12:46 28.20463 74.75146 19810 ft 459 kts 89°
2026-04-17 12:46 28.20543 74.78758 19816 ft 456 kts 89°
2026-04-17 12:47 28.20620 74.82338 19812 ft 458 kts 88°
2026-04-17 12:47 28.20697 74.85921 19820 ft 456 kts 89°
2026-04-17 12:47 28.20774 74.89524 19816 ft 455 kts 89°
2026-04-17 12:47 28.20848 74.93108 19810 ft 456 kts 89°
2026-04-17 12:48 28.20922 74.96688 19607 ft 458 kts 89°
2026-04-17 12:48 28.20996 75.00294 19383 ft 455 kts 89°
2026-04-17 12:48 28.21068 75.03864 19177 ft 452 kts 89°
2026-04-17 12:48 28.21138 75.07415 18974 ft 452 kts 89°
2026-04-17 12:49 28.21207 75.10951 18779 ft 449 kts 89°
2026-04-17 12:49 28.21275 75.14481 18581 ft 449 kts 89°
2026-04-17 12:49 28.21343 75.18034 18375 ft 448 kts 88°
2026-04-17 12:49 28.21409 75.21552 18172 ft 445 kts 88°
2026-04-17 12:50 28.21475 75.25055 17969 ft 445 kts 89°
2026-04-17 12:50 28.21538 75.28508 17768 ft 443 kts 89°
2026-04-17 12:50 28.21601 75.32019 17570 ft 442 kts 88°
2026-04-17 12:50 28.21663 75.35513 17370 ft 441 kts 88°
2026-04-17 12:51 28.21724 75.38921 17171 ft 439 kts 88°
2026-04-17 12:51 28.21784 75.42412 16976 ft 435 kts 88°
2026-04-17 12:51 28.21842 75.45794 16763 ft 421 kts 88°
2026-04-17 12:51 28.21896 75.49039 16539 ft 406 kts 88°
2026-04-17 12:52 28.21948 75.52170 16328 ft 392 kts 88°
2026-04-17 12:52 28.21998 75.55218 16115 ft 384 kts 88°
2026-04-17 12:52 28.22047 75.58231 15912 ft 381 kts 88°
2026-04-17 12:52 28.22095 75.61224 15715 ft 380 kts 89°
2026-04-17 12:53 28.22141 75.64198 15527 ft 381 kts 88°
2026-04-17 12:53 28.22188 75.67213 15321 ft 380 kts 89°
2026-04-17 12:53 28.22233 75.70179 15124 ft 379 kts 89°
2026-04-17 12:53 28.22278 75.73160 14927 ft 376 kts 89°
2026-04-17 12:54 28.22322 75.76092 14810 ft 373 kts 89°
2026-04-17 12:54 28.22365 75.79054 14852 ft 373 kts 89°
2026-04-17 12:54 28.22407 75.81971 14836 ft 374 kts 89°
2026-04-17 12:54 28.22449 75.84927 14824 ft 374 kts 89°
2026-04-17 12:55 28.22490 75.87896 14829 ft 375 kts 89°
2026-04-17 12:55 28.22531 75.90862 14824 ft 376 kts 89°
2026-04-17 12:55 28.22572 75.93798 14822 ft 376 kts 89°
2026-04-17 12:55 28.22611 75.96761 14823 ft 374 kts 89°
2026-04-17 12:56 28.22649 75.99711 14827 ft 376 kts 89°
2026-04-17 12:56 28.22687 76.02668 14821 ft 376 kts 89°
2026-04-17 12:56 28.22725 76.05624 14818 ft 375 kts 89°
2026-04-17 12:56 28.22762 76.08569 14817 ft 374 kts 89°
2026-04-17 12:57 28.22798 76.11533 14817 ft 375 kts 89°
2026-04-17 12:57 28.22834 76.14489 14819 ft 375 kts 89°
2026-04-17 12:57 28.22868 76.17419 14812 ft 376 kts 89°
2026-04-17 12:57 28.22903 76.20380 14809 ft 368 kts 89°
2026-04-17 12:58 28.22934 76.23222 14794 ft 352 kts 89°
2026-04-17 12:58 28.22965 76.25940 14795 ft 338 kts 89°
2026-04-17 12:58 28.22994 76.28589 14801 ft 336 kts 89°
2026-04-17 12:58 28.23023 76.31233 14810 ft 338 kts 89°
2026-04-17 12:59 28.23052 76.33894 14812 ft 338 kts 89°
2026-04-17 12:59 28.23080 76.36566 14815 ft 338 kts 89°
2026-04-17 12:59 28.23107 76.39231 14813 ft 338 kts 89°
2026-04-17 12:59 28.23134 76.41912 14740 ft 339 kts 89°
2026-04-17 13:00 28.23469 76.44501 14591 ft 335 kts 69°
2026-04-17 13:00 28.24544 76.46828 14493 ft 334 kts 57°
2026-04-17 13:00 28.25736 76.49095 14390 ft 332 kts 57°
2026-04-17 13:00 28.26916 76.51365 14271 ft 332 kts 57°
2026-04-17 13:01 28.28071 76.53600 14152 ft 331 kts 57°
2026-04-17 13:01 28.29236 76.55859 14034 ft 329 kts 57°
2026-04-17 13:01 28.30394 76.58108 13921 ft 330 kts 57°
2026-04-17 13:01 28.31546 76.60345 13806 ft 329 kts 58°
2026-04-17 13:02 28.32697 76.62583 13688 ft 328 kts 58°
2026-04-17 13:02 28.33850 76.64831 13566 ft 327 kts 58°
2026-04-17 13:02 28.34964 76.67078 13442 ft 326 kts 63°
2026-04-17 13:02 28.35915 76.69428 13325 ft 327 kts 64°
2026-04-17 13:03 28.36859 76.71747 13208 ft 327 kts 64°
2026-04-17 13:03 28.37817 76.74092 13089 ft 326 kts 64°
2026-04-17 13:03 28.38767 76.76424 12971 ft 325 kts 64°
2026-04-17 13:03 28.39607 76.78481 12868 ft 324 kts 64°